| time (UTC) | temp C | wind direction | speed KPH | gust KPH | rain 1hr cm | rain 24hr cm | rain mn cm | humidity % | barometer mb |
| 20260509032148 | 7 | 264 | 0.0 | 0.0 | 0.00 | 0.00 | 0.00 | 66 | 1009.3 |
| 20260509031646 | 7 | 268 | 0.0 | 0.0 | 0.00 | 0.00 | 0.00 | 67 | 1009.4 |
| 20260509031143 | 7 | 267 | 0.0 | 0.0 | 0.00 | 0.00 | 0.00 | 66 | 1009.5 |
| 20260509030641 | 7 | 258 | 0.0 | 0.0 | 0.00 | 0.00 | 0.00 | 66 | 1009.2 |
| 20260509030138 | 7 | 258 | 0.0 | 0.0 | 0.00 | 0.00 | 0.00 | 65 | 1009.5 |
| 20260509025634 | 7 | 264 | 0.0 | 0.0 | 0.00 | 0.00 | 0.00 | 66 | 1009.4 |
| 20260509025130 | 7 | 263 | 0.0 | 0.0 | 0.00 | 0.00 | 0.00 | 66 | 1009.5 |
| 20260509024625 | 7 | 264 | 0.0 | 0.0 | 0.00 | 0.00 | 0.00 | 65 | 1009.6 |
| 20260509024121 | 7 | 264 | 0.0 | 0.0 | 0.00 | 0.00 | 0.00 | 64 | 1009.5 |
| 20260509023620 | 7 | 264 | 0.0 | 0.0 | 0.00 | 0.00 | 0.00 | 64 | 1009.5 |
| 20260509023116 | 7 | 264 | 0.0 | 0.0 | 0.00 | 0.00 | 0.00 | 63 | 1009.3 |
| 20260509022612 | 7 | 264 | 0.0 | 0.0 | 0.00 | 0.00 | 0.00 | 63 | 1009.5 |
| 20260509022105 | 7 | 264 | 0.0 | 0.0 | 0.00 | 0.00 | 0.00 | 63 | 1009.4 |
| 20260509021602 | 8 | 264 | 0.0 | 0.0 | 0.00 | 0.00 | 0.00 | 62 | 1009.5 |
| 20260509021058 | 8 | 264 | 0.0 | 0.0 | 0.00 | 0.00 | 0.00 | 61 | 1009.3 |
| 20260509020556 | 8 | 264 | 0.0 | 0.0 | 0.00 | 0.00 | 0.00 | 60 | 1009.3 |
| 20260509020053 | 8 | 264 | 0.0 | 0.0 | 0.00 | 0.00 | 0.00 | 59 | 1008.9 |
| 20260509015547 | 9 | 264 | 0.0 | 0.0 | 0.00 | 0.00 | 0.00 | 59 | 1009.0 |
| 20260509015044 | 9 | 264 | 0.0 | 0.0 | 0.00 | 0.00 | 0.00 | 58 | 1009.0 |
| 20260509014540 | 10 | 264 | 0.0 | 0.0 | 0.00 | 0.00 | 0.00 | 57 | 1009.2 |
| 20260509014036 | 10 | 264 | 0.0 | 0.0 | 0.00 | 0.00 | 0.00 | 56 | 1009.0 |
| 20260509013534 | 10 | 264 | 0.0 | 0.0 | 0.00 | 0.00 | 0.00 | 55 | 1008.9 |
| 20260509013029 | 11 | 264 | 0.0 | 0.0 | 0.00 | 0.00 | 0.00 | 53 | 1008.7 |
| 20260509012526 | 11 | 264 | 0.0 | 0.0 | 0.00 | 0.00 | 0.00 | 53 | 1008.6 |
| 20260509012023 | 11 | 260 | 0.0 | 0.0 | 0.00 | 0.00 | 0.00 | 51 | 1008.6 |
| 20260509011521 | 12 | 264 | 0.0 | 0.0 | 0.00 | 0.00 | 0.00 | 49 | 1008.5 |
| 20260509011018 | 12 | 265 | 0.0 | 0.0 | 0.00 | 0.00 | 0.00 | 47 | 1008.6 |
| 20260509010515 | 12 | 266 | 0.0 | 0.0 | 0.00 | 0.00 | 0.00 | 47 | 1008.5 |
| 20260509010012 | 12 | 258 | 0.0 | 0.0 | 0.00 | 0.00 | 0.00 | 46 | 1008.2 |
| 20260509005509 | 13 | 258 | 0.0 | 0.0 | 0.00 | 0.00 | 0.00 | 44 | 1008.2 |
| 20260509005004 | 13 | 258 | 0.0 | 0.0 | 0.00 | 0.00 | 0.00 | 42 | 1008.4 |
| 20260509004501 | 14 | 267 | 0.0 | 0.0 | 0.00 | 0.00 | 0.00 | 42 | 1008.1 |
| 20260509003958 | 15 | 260 | 0.0 | 0.0 | 0.00 | 0.00 | 0.00 | 41 | 1007.9 |
| 20260509003457 | 15 | 262 | 0.0 | 0.0 | 0.00 | 0.00 | 0.00 | 39 | 1008.2 |
| 20260509002953 | 15 | 261 | 0.0 | 1.6 | 0.00 | 0.00 | 0.00 | 38 | 1008.3 |
| 20260509002451 | 16 | 265 | 0.0 | 0.0 | 0.00 | 0.00 | 0.00 | 39 | 1008.1 |
| 20260509001948 | 16 | 198 | 1.6 | 1.6 | 0.00 | 0.00 | 0.00 | 37 | 1007.8 |
| 20260509001444 | 16 | 67 | 1.6 | 3.2 | 0.00 | 0.00 | 0.00 | 40 | 1007.9 |
| 20260509000941 | 16 | 261 | 0.0 | 0.0 | 0.00 | 0.00 | 0.00 | 39 | 1007.7 |
| 20260509000440 | 16 | 268 | 0.0 | 1.6 | 0.00 | 0.00 | 0.00 | 38 | 1007.9 |
| 20260508235935 | 16 | 300 | 1.6 | 1.6 | 0.00 | 0.00 | 0.00 | 39 | 1008.0 |
| 20260508235433 | 16 | 189 | 1.6 | 3.2 | 0.00 | 0.00 | 0.00 | 41 | 1007.7 |
| 20260508234929 | 16 | 247 | 0.0 | 0.0 | 0.00 | 0.00 | 0.00 | 40 | 1008.1 |
| 20260508234426 | 16 | 248 | 0.0 | 0.0 | 0.00 | 0.00 | 0.00 | 40 | 1007.8 |
| 20260508233924 | 17 | 72 | 4.8 | 8.0 | 0.00 | 0.00 | 0.00 | 38 | 1008.1 |
| 20260508233423 | 17 | 265 | 0.0 | 1.6 | 0.00 | 0.00 | 0.00 | 39 | 1008.0 |
| 20260508232920 | 17 | 250 | 0.0 | 1.6 | 0.00 | 0.00 | 0.00 | 39 | 1007.8 |
| 20260508232417 | 17 | 348 | 3.2 | 3.2 | 0.00 | 0.00 | 0.00 | 37 | 1007.7 |
| 20260508231914 | 16 | 347 | 1.6 | 3.2 | 0.00 | 0.00 | 0.00 | 37 | 1007.9 |
| 20260508231411 | 17 | 268 | 1.6 | 1.6 | 0.00 | 0.00 | 0.00 | 39 | 1008.0 |
| 20260508230908 | 17 | 265 | 1.6 | 1.6 | 0.00 | 0.00 | 0.00 | 38 | 1007.9 |
| 20260508230404 | 17 | 189 | 1.6 | 3.2 | 0.00 | 0.00 | 0.00 | 40 | 1007.9 |
| 20260508225901 | 17 | 342 | 0.0 | 0.0 | 0.00 | 0.00 | 0.00 | 39 | 1008.1 |
| 20260508225358 | 18 | 254 | 0.0 | 1.6 | 0.00 | 0.00 | 0.00 | 38 | 1007.8 |
| 20260508224856 | 17 | 332 | 3.2 | 4.8 | 0.00 | 0.00 | 0.00 | 36 | 1008.0 |
| 20260508224353 | 18 | 275 | 4.8 | 4.8 | 0.00 | 0.00 | 0.00 | 36 | 1007.9 |
| 20260508223851 | 18 | 340 | 4.8 | 4.8 | 0.00 | 0.00 | 0.00 | 34 | 1008.0 |
| 20260508223348 | 18 | 139 | 6.4 | 9.7 | 0.00 | 0.00 | 0.00 | 36 | 1008.0 |
| 20260508222846 | 18 | 28 | 1.6 | 3.2 | 0.00 | 0.00 | 0.00 | 35 | 1008.0 |
| 20260508222342 | 18 | 355 | 0.0 | 0.0 | 0.00 | 0.00 | 0.00 | 37 | 1008.0 |
| 20260508221839 | 17 | 48 | 3.2 | 3.2 | 0.00 | 0.00 | 0.00 | 35 | 1008.1 |
| 20260508221334 | 18 | 241 | 0.0 | 1.6 | 0.00 | 0.00 | 0.00 | 39 | 1008.2 |
| 20260508220831 | 18 | 75 | 3.2 | 4.8 | 0.00 | 0.00 | 0.00 | 35 | 1008.1 |
| 20260508220327 | 18 | 267 | 1.6 | 1.6 | 0.00 | 0.00 | 0.00 | 37 | 1008.0 |
| 20260508215824 | 18 | 236 | 1.6 | 1.6 | 0.00 | 0.00 | 0.00 | 39 | 1008.0 |
| 20260508215321 | 18 | 87 | 9.7 | 14.5 | 0.00 | 0.00 | 0.00 | 34 | 1008.2 |
| 20260508214818 | 20 | 227 | 1.6 | 3.2 | 0.00 | 0.00 | 0.00 | 34 | 1008.0 |
| 20260508214315 | 20 | 197 | 3.2 | 3.2 | 0.00 | 0.00 | 0.00 | 35 | 1008.2 |
| 20260508213811 | 19 | 78 | 4.8 | 8.0 | 0.00 | 0.00 | 0.00 | 33 | 1008.1 |
| 20260508213308 | 19 | 296 | 0.0 | 0.0 | 0.00 | 0.00 | 0.00 | 39 | 1008.3 |
| 20260508212804 | 17 | 322 | 1.6 | 1.6 | 0.00 | 0.00 | 0.00 | 35 | 1008.3 |
| 20260508212301 | 17 | 246 | 0.0 | 1.6 | 0.00 | 0.00 | 0.00 | 36 | 1008.3 |
| 20260508211756 | 18 | 31 | 6.4 | 9.7 | 0.00 | 0.00 | 0.00 | 33 | 1008.3 |
| 20260508211252 | 19 | 26 | 4.8 | 4.8 | 0.00 | 0.00 | 0.00 | 34 | 1008.4 |
| 20260508210750 | 19 | 219 | 4.8 | 8.0 | 0.00 | 0.00 | 0.00 | 35 | 1008.4 |
| 20260508210247 | 18 | 246 | 1.6 | 1.6 | 0.00 | 0.00 | 0.00 | 35 | 1008.7 |
| 20260508205744 | 18 | 298 | 0.0 | 0.0 | 0.00 | 0.00 | 0.00 | 35 | 1008.5 |
| 20260508205240 | 20 | 28 | 3.2 | 4.8 | 0.00 | 0.00 | 0.00 | 32 | 1008.5 |
| 20260508204737 | 20 | 67 | 3.2 | 3.2 | 0.00 | 0.00 | 0.00 | 32 | 1008.6 |
| 20260508204233 | 19 | 24 | 4.8 | 4.8 | 0.00 | 0.00 | 0.00 | 33 | 1008.8 |
| 20260508203729 | 19 | 261 | 6.4 | 9.7 | 0.00 | 0.00 | 0.00 | 33 | 1008.5 |
| 20260508203225 | 20 | 33 | 4.8 | 4.8 | 0.00 | 0.00 | 0.00 | 33 | 1008.6 |
| 20260508202721 | 18 | 253 | 4.8 | 8.0 | 0.00 | 0.00 | 0.00 | 34 | 1008.9 |
| 20260508202219 | 18 | 67 | 3.2 | 4.8 | 0.00 | 0.00 | 0.00 | 37 | 1008.8 |
| 20260508201716 | 20 | 253 | 1.6 | 1.6 | 0.00 | 0.00 | 0.00 | 34 | 1008.8 |
| 20260508201212 | 19 | 56 | 3.2 | 4.8 | 0.00 | 0.00 | 0.00 | 33 | 1009.4 |
| 20260508200709 | 19 | 271 | 1.6 | 3.2 | 0.00 | 0.00 | 0.00 | 33 | 1009.4 |
| 20260508200205 | 18 | 218 | 4.8 | 8.0 | 0.00 | 0.00 | 0.00 | 38 | 1009.4 |
| 20260508195702 | 18 | 216 | 3.2 | 3.2 | 0.00 | 0.00 | 0.00 | 33 | 1009.4 |
| 20260508195158 | 19 | 37 | 3.2 | 4.8 | 0.00 | 0.00 | 0.00 | 35 | 1009.8 |
| 20260508194655 | 19 | 270 | 1.6 | 1.6 | 0.00 | 0.00 | 0.00 | 36 | 1009.7 |
| 20260508194152 | 20 | 262 | 3.2 | 3.2 | 0.00 | 0.00 | 0.00 | 34 | 1009.8 |
| 20260508193649 | 19 | 296 | 8.0 | 11.3 | 0.00 | 0.00 | 0.00 | 36 | 1009.7 |
| 20260508193145 | 18 | 240 | 6.4 | 8.0 | 0.00 | 0.00 | 0.00 | 36 | 1009.7 |
| 20260508192642 | 18 | 260 | 1.6 | 1.6 | 0.00 | 0.00 | 0.00 | 34 | 1010.1 |
| 20260508192140 | 18 | 241 | 3.2 | 3.2 | 0.00 | 0.00 | 0.00 | 35 | 1009.9 |
| 20260508191636 | 19 | 285 | 3.2 | 3.2 | 0.00 | 0.00 | 0.00 | 37 | 1010.0 |
| 20260508191133 | 19 | 219 | 3.2 | 4.8 | 0.00 | 0.00 | 0.00 | 38 | 1010.3 |
| 20260508190630 | 20 | 283 | 4.8 | 9.7 | 0.00 | 0.00 | 0.00 | 33 | 1010.0 |
| 20260508190127 | 18 | 14 | 6.4 | 8.0 | 0.00 | 0.00 | 0.00 | 33 | 1010.3 |
| 20260508185624 | 18 | 257 | 4.8 | 4.8 | 0.00 | 0.00 | 0.00 | 37 | 1010.3 |
| 20260508185121 | 18 | 243 | 1.6 | 1.6 | 0.00 | 0.00 | 0.00 | 38 | 1010.2 |
| 20260508184618 | 18 | 212 | 0.0 | 1.6 | 0.00 | 0.00 | 0.00 | 37 | 1010.3 |
| 20260508184115 | 18 | 24 | 3.2 | 4.8 | 0.00 | 0.00 | 0.00 | 32 | 1010.4 |
| 20260508183612 | 19 | 70 | 1.6 | 3.2 | 0.00 | 0.00 | 0.00 | 33 | 1010.6 |
| 20260508183108 | 20 | 13 | 3.2 | 4.8 | 0.00 | 0.00 | 0.00 | 32 | 1010.7 |
| 20260508182604 | 18 | 243 | 1.6 | 3.2 | 0.00 | 0.00 | 0.00 | 38 | 1010.6 |
| 20260508182101 | 19 | 219 | 1.6 | 1.6 | 0.00 | 0.00 | 0.00 | 37 | 1010.8 |
| 20260508181555 | 18 | 262 | 1.6 | 3.2 | 0.00 | 0.00 | 0.00 | 38 | 1010.6 |
| 20260508181054 | 18 | 13 | 4.8 | 8.0 | 0.00 | 0.00 | 0.00 | 31 | 1010.6 |
| 20260508180550 | 18 | 251 | 4.8 | 4.8 | 0.00 | 0.00 | 0.00 | 35 | 1010.7 |
| 20260508180046 | 18 | 16 | 4.8 | 4.8 | 0.00 | 0.00 | 0.00 | 33 | 1010.6 |
| 20260508175542 | 17 | 353 | 0.0 | 1.6 | 0.00 | 0.00 | 0.00 | 38 | 1010.9 |
| 20260508175040 | 18 | 236 | 1.6 | 1.6 | 0.00 | 0.00 | 0.00 | 38 | 1011.2 |
| 20260508174537 | 18 | 46 | 3.2 | 3.2 | 0.00 | 0.00 | 0.00 | 33 | 1011.2 |
| 20260508174035 | 18 | 235 | 1.6 | 3.2 | 0.00 | 0.00 | 0.00 | 35 | 1011.4 |
| 20260508173531 | 17 | 216 | 3.2 | 3.2 | 0.00 | 0.00 | 0.00 | 34 | 1011.5 |
| 20260508173027 | 18 | 318 | 4.8 | 9.7 | 0.00 | 0.00 | 0.00 | 31 | 1011.6 |
| 20260508172525 | 17 | 71 | 4.8 | 4.8 | 0.00 | 0.00 | 0.00 | 32 | 1011.5 |
| 20260508172021 | 17 | 104 | 4.8 | 4.8 | 0.00 | 0.00 | 0.00 | 34 | 1011.5 |
| 20260508171518 | 17 | 239 | 3.2 | 4.8 | 0.00 | 0.00 | 0.00 | 41 | 1011.9 |
| 20260508171014 | 17 | 252 | 3.2 | 3.2 | 0.00 | 0.00 | 0.00 | 34 | 1011.7 |
| 20260508170511 | 17 | 44 | 6.4 | 8.0 | 0.00 | 0.00 | 0.00 | 32 | 1011.9 |
| 20260508170009 | 16 | 126 | 3.2 | 4.8 | 0.00 | 0.00 | 0.00 | 38 | 1012.0 |
| 20260508165506 | 17 | 244 | 1.6 | 1.6 | 0.00 | 0.00 | 0.00 | 36 | 1011.8 |
| 20260508165002 | 17 | 31 | 4.8 | 8.0 | 0.00 | 0.00 | 0.00 | 34 | 1012.0 |
| 20260508164459 | 17 | 40 | 4.8 | 8.0 | 0.00 | 0.00 | 0.00 | 32 | 1012.1 |
| 20260508163956 | 17 | 284 | 3.2 | 3.2 | 0.00 | 0.00 | 0.00 | 35 | 1012.0 |
| 20260508163454 | 16 | 305 | 1.6 | 1.6 | 0.00 | 0.00 | 0.00 | 38 | 1012.1 |
| 20260508162949 | 17 | 253 | 1.6 | 1.6 | 0.00 | 0.00 | 0.00 | 36 | 1012.2 |
| 20260508162447 | 17 | 219 | 8.0 | 8.0 | 0.00 | 0.00 | 0.00 | 40 | 1012.2 |
| 20260508161944 | 17 | 199 | 1.6 | 3.2 | 0.00 | 0.00 | 0.00 | 37 | 1012.4 |
| 20260508161441 | 17 | 247 | 1.6 | 1.6 | 0.00 | 0.00 | 0.00 | 43 | 1012.2 |
| 20260508160938 | 16 | 214 | 1.6 | 3.2 | 0.00 | 0.00 | 0.00 | 37 | 1012.6 |
| 20260508160437 | 16 | 238 | 1.6 | 1.6 | 0.00 | 0.00 | 0.00 | 43 | 1012.5 |
| 20260508155932 | 16 | 352 | 1.6 | 1.6 | 0.00 | 0.00 | 0.00 | 40 | 1012.6 |
| 20260508155430 | 15 | 337 | 1.6 | 3.2 | 0.00 | 0.00 | 0.00 | 41 | 1012.6 |
| 20260508154927 | 15 | 282 | 3.2 | 3.2 | 0.00 | 0.00 | 0.00 | 39 | 1012.7 |
| 20260508154425 | 16 | 59 | 4.8 | 4.8 | 0.00 | 0.00 | 0.00 | 40 | 1012.6 |
| 20260508153921 | 16 | 53 | 1.6 | 1.6 | 0.00 | 0.00 | 0.00 | 40 | 1012.6 |
| 20260508153418 | 15 | 237 | 0.0 | 1.6 | 0.00 | 0.00 | 0.00 | 47 | 1012.7 |
| 20260508152914 | 15 | 236 | 3.2 | 3.2 | 0.00 | 0.00 | 0.00 | 47 | 1012.8 |
| 20260508152411 | 15 | 255 | 1.6 | 1.6 | 0.00 | 0.00 | 0.00 | 47 | 1012.8 |
| 20260508151907 | 15 | 249 | 0.0 | 0.0 | 0.00 | 0.00 | 0.00 | 47 | 1012.8 |
| 20260508151404 | 14 | 311 | 3.2 | 3.2 | 0.00 | 0.00 | 0.00 | 46 | 1012.8 |
| 20260508150900 | 15 | 261 | 0.0 | 1.6 | 0.00 | 0.00 | 0.00 | 46 | 1013.1 |
| 20260508150357 | 14 | 279 | 0.0 | 1.6 | 0.00 | 0.00 | 0.00 | 47 | 1013.0 |
| 20260508145853 | 15 | 266 | 1.6 | 3.2 | 0.00 | 0.00 | 0.00 | 48 | 1013.2 |
| 20260508145349 | 14 | 235 | 4.8 | 4.8 | 0.00 | 0.00 | 0.00 | 50 | 1013.1 |
| 20260508144846 | 14 | 216 | 3.2 | 3.2 | 0.00 | 0.00 | 0.00 | 49 | 1013.1 |
| 20260508144344 | 13 | 287 | 0.0 | 0.0 | 0.00 | 0.00 | 0.00 | 48 | 1013.1 |
| 20260508143841 | 13 | 263 | 1.6 | 1.6 | 0.00 | 0.00 | 0.00 | 49 | 1013.2 |
| 20260508143338 | 15 | 300 | 0.0 | 1.6 | 0.00 | 0.00 | 0.00 | 48 | 1013.2 |
| 20260508142835 | 14 | 41 | 3.2 | 3.2 | 0.00 | 0.00 | 0.00 | 48 | 1013.3 |
| 20260508142332 | 14 | 213 | 1.6 | 1.6 | 0.00 | 0.00 | 0.00 | 52 | 1013.4 |
| 20260508141828 | 13 | 263 | 0.0 | 1.6 | 0.00 | 0.00 | 0.00 | 54 | 1013.4 |
| 20260508141325 | 12 | 239 | 3.2 | 3.2 | 0.00 | 0.00 | 0.00 | 53 | 1013.4 |
| 20260508140823 | 13 | 309 | 3.2 | 3.2 | 0.00 | 0.00 | 0.00 | 52 | 1013.5 |
| 20260508140320 | 13 | 246 | 0.0 | 0.0 | 0.00 | 0.00 | 0.00 | 54 | 1013.5 |
| 20260508135815 | 12 | 256 | 0.0 | 0.0 | 0.00 | 0.00 | 0.00 | 58 | 1013.5 |
| 20260508135312 | 12 | 48 | 1.6 | 3.2 | 0.00 | 0.00 | 0.00 | 59 | 1013.5 |
| 20260508134808 | 12 | 238 | 1.6 | 1.6 | 0.00 | 0.00 | 0.00 | 65 | 1013.6 |
| 20260508134306 | 12 | 254 | 0.0 | 0.0 | 0.00 | 0.00 | 0.00 | 63 | 1013.7 |
| 20260508133802 | 11 | 259 | 0.0 | 0.0 | 0.00 | 0.00 | 0.00 | 66 | 1013.6 |
| 20260508133300 | 11 | 260 | 0.0 | 0.0 | 0.00 | 0.00 | 0.00 | 65 | 1013.7 |
| 20260508132757 | 10 | 240 | 1.6 | 1.6 | 0.00 | 0.00 | 0.00 | 69 | 1013.8 |
| 20260508132254 | 10 | 241 | 1.6 | 1.6 | 0.00 | 0.00 | 0.00 | 72 | 1013.7 |
| 20260508131750 | 11 | 268 | 1.6 | 1.6 | 0.00 | 0.00 | 0.00 | 71 | 1013.9 |
| 20260508131246 | 10 | 255 | 0.0 | 1.6 | 0.00 | 0.00 | 0.00 | 73 | 1013.9 |
| 20260508130743 | 9 | 231 | 1.6 | 3.2 | 0.00 | 0.00 | 0.00 | 75 | 1013.7 |
| 20260508130240 | 9 | 250 | 0.0 | 0.0 | 0.00 | 0.00 | 0.00 | 78 | 1013.8 |
| 20260508125736 | 8 | 210 | 3.2 | 4.8 | 0.00 | 0.00 | 0.00 | 78 | 1013.8 |
| 20260508125232 | 8 | 245 | 1.6 | 1.6 | 0.00 | 0.00 | 0.00 | 79 | 1013.9 |
| 20260508124731 | 8 | 213 | 3.2 | 3.2 | 0.00 | 0.00 | 0.00 | 80 | 1013.8 |
| 20260508124228 | 8 | 247 | 1.6 | 1.6 | 0.00 | 0.00 | 0.00 | 82 | 1013.5 |
| 20260508123726 | 7 | 244 | 3.2 | 3.2 | 0.00 | 0.00 | 0.00 | 82 | 1013.6 |
| 20260508123224 | 8 | 226 | 1.6 | 1.6 | 0.00 | 0.00 | 0.00 | 83 | 1013.7 |
| 20260508122719 | 7 | 222 | 3.2 | 4.8 | 0.00 | 0.00 | 0.00 | 85 | 1013.7 |
| 20260508122216 | 7 | 255 | 0.0 | 1.6 | 0.00 | 0.00 | 0.00 | 88 | 1013.6 |
| 20260508121714 | 7 | 224 | 1.6 | 1.6 | 0.00 | 0.00 | 0.00 | 90 | 1013.5 |
| 20260508121213 | 6 | 233 | 1.6 | 3.2 | 0.00 | 0.00 | 0.00 | 93 | 1013.6 |
| 20260508120709 | 6 | 252 | 0.0 | 1.6 | 0.00 | 0.00 | 0.00 | 94 | 1013.5 |
| 20260508120208 | 6 | 246 | 0.0 | 0.0 | 0.00 | 0.00 | 0.00 | 94 | 1013.6 |
| 20260508115705 | 6 | 242 | 0.0 | 0.0 | 0.00 | 0.00 | 0.00 | 95 | 1013.6 |
| 20260508115202 | 6 | 258 | 0.0 | 0.0 | 0.00 | 0.00 | 0.00 | 95 | 1013.6 |
| 20260508114658 | 6 | 260 | 0.0 | 0.0 | 0.00 | 0.00 | 0.00 | 95 | 1013.5 |
| 20260508114155 | 5 | 260 | 0.0 | 0.0 | 0.00 | 0.00 | 0.00 | 95 | 1013.6 |
| 20260508113652 | 5 | 260 | 0.0 | 0.0 | 0.00 | 0.00 | 0.00 | 94 | 1013.4 |
| 20260508113150 | 5 | 267 | 0.0 | 0.0 | 0.00 | 0.00 | 0.00 | 94 | 1013.6 |
| 20260508112646 | 4 | 258 | 0.0 | 0.0 | 0.00 | 0.00 | 0.00 | 94 | 1013.4 |
| 20260508112143 | 3 | 250 | 0.0 | 0.0 | 0.00 | 0.00 | 0.00 | 94 | 1013.4 |
| 20260508111639 | 2 | 260 | 0.0 | 0.0 | 0.00 | 0.00 | 0.00 | 93 | 1013.5 |
| 20260508111137 | 2 | 260 | 0.0 | 0.0 | 0.00 | 0.00 | 0.00 | 93 | 1013.4 |
| 20260508110635 | 2 | 260 | 0.0 | 0.0 | 0.00 | 0.00 | 0.00 | 93 | 1013.3 |
| 20260508110131 | 1 | 260 | 0.0 | 0.0 | 0.00 | 0.00 | 0.00 | 93 | 1013.2 |
| 20260508105626 | 1 | 260 | 0.0 | 0.0 | 0.00 | 0.00 | 0.00 | 93 | 1013.3 |
| 20260508105123 | 1 | 260 | 0.0 | 0.0 | 0.00 | 0.00 | 0.00 | 93 | 1013.3 |
| 20260508104621 | 1 | 260 | 0.0 | 0.0 | 0.00 | 0.00 | 0.00 | 92 | 1013.1 |
| 20260508104117 | 1 | 260 | 0.0 | 0.0 | 0.00 | 0.00 | 0.00 | 92 | 1013.2 |
| 20260508103615 | 1 | 260 | 0.0 | 0.0 | 0.00 | 0.00 | 0.00 | 92 | 1013.2 |
| 20260508103112 | 1 | 260 | 0.0 | 0.0 | 0.00 | 0.00 | 0.00 | 92 | 1013.2 |
| 20260508102609 | 1 | 260 | 0.0 | 0.0 | 0.00 | 0.00 | 0.00 | 92 | 1013.1 |
| 20260508102107 | 1 | 262 | 0.0 | 0.0 | 0.00 | 0.00 | 0.00 | 92 | 1013.2 |
| 20260508101604 | 1 | 262 | 0.0 | 0.0 | 0.00 | 0.00 | 0.00 | 92 | 1013.1 |
| 20260508101101 | 1 | 262 | 0.0 | 0.0 | 0.00 | 0.00 | 0.00 | 92 | 1013.1 |
| 20260508100559 | 1 | 262 | 0.0 | 0.0 | 0.00 | 0.00 | 0.00 | 91 | 1013.3 |
| 20260508100055 | 2 | 262 | 0.0 | 0.0 | 0.00 | 0.00 | 0.00 | 91 | 1013.2 |
| 20260508095553 | 2 | 262 | 0.0 | 0.0 | 0.00 | 0.00 | 0.00 | 91 | 1013.3 |
| 20260508095049 | 2 | 264 | 0.0 | 0.0 | 0.00 | 0.00 | 0.00 | 91 | 1013.4 |
| 20260508094547 | 2 | 264 | 0.0 | 0.0 | 0.00 | 0.00 | 0.00 | 91 | 1013.4 |
| 20260508094044 | 2 | 264 | 0.0 | 0.0 | 0.00 | 0.00 | 0.00 | 91 | 1013.3 |
| 20260508093541 | 2 | 266 | 0.0 | 0.0 | 0.00 | 0.00 | 0.00 | 91 | 1013.3 |
| 20260508093038 | 2 | 261 | 0.0 | 0.0 | 0.00 | 0.00 | 0.00 | 90 | 1013.3 |
| 20260508092535 | 2 | 261 | 0.0 | 0.0 | 0.00 | 0.00 | 0.00 | 90 | 1013.4 |
| 20260508092035 | 2 | 261 | 0.0 | 0.0 | 0.00 | 0.00 | 0.00 | 90 | 1013.3 |
| 20260508091531 | 2 | 261 | 0.0 | 0.0 | 0.00 | 0.00 | 0.00 | 90 | 1013.3 |
| 20260508091028 | 2 | 261 | 0.0 | 0.0 | 0.00 | 0.00 | 0.00 | 90 | 1013.2 |
| 20260508090526 | 2 | 262 | 0.0 | 0.0 | 0.00 | 0.00 | 0.00 | 90 | 1013.3 |
| 20260508090022 | 3 | 260 | 0.0 | 0.0 | 0.00 | 0.00 | 0.00 | 89 | 1013.2 |
| 20260508085519 | 3 | 263 | 0.0 | 0.0 | 0.00 | 0.00 | 0.00 | 89 | 1013.3 |
| 20260508085016 | 3 | 262 | 0.0 | 0.0 | 0.00 | 0.00 | 0.00 | 89 | 1013.2 |
| 20260508084513 | 3 | 262 | 0.0 | 0.0 | 0.00 | 0.00 | 0.00 | 89 | 1013.4 |
| 20260508084010 | 3 | 263 | 0.0 | 0.0 | 0.00 | 0.00 | 0.00 | 89 | 1013.2 |
| 20260508083507 | 3 | 265 | 0.0 | 0.0 | 0.00 | 0.00 | 0.00 | 88 | 1013.1 |
| 20260508083004 | 3 | 263 | 0.0 | 0.0 | 0.00 | 0.00 | 0.00 | 88 | 1013.1 |
| 20260508082500 | 3 | 265 | 0.0 | 0.0 | 0.00 | 0.00 | 0.00 | 88 | 1013.2 |
| 20260508081957 | 3 | 265 | 0.0 | 0.0 | 0.00 | 0.00 | 0.00 | 87 | 1013.3 |
| 20260508081454 | 4 | 266 | 0.0 | 0.0 | 0.00 | 0.00 | 0.00 | 87 | 1013.2 |
| 20260508080950 | 3 | 260 | 0.0 | 0.0 | 0.00 | 0.00 | 0.00 | 86 | 1013.1 |
| 20260508080448 | 4 | 260 | 0.0 | 0.0 | 0.00 | 0.00 | 0.00 | 86 | 1013.3 |
| 20260508075945 | 4 | 265 | 0.0 | 0.0 | 0.00 | 0.00 | 0.00 | 86 | 1013.3 |
| 20260508075442 | 4 | 265 | 0.0 | 0.0 | 0.00 | 0.00 | 0.00 | 85 | 1013.2 |
| 20260508074940 | 5 | 260 | 0.0 | 0.0 | 0.00 | 0.00 | 0.00 | 85 | 1013.4 |
| 20260508074437 | 5 | 260 | 0.0 | 0.0 | 0.00 | 0.00 | 0.00 | 85 | 1013.4 |
| 20260508073934 | 5 | 260 | 0.0 | 0.0 | 0.00 | 0.00 | 0.00 | 84 | 1013.3 |
| 20260508073432 | 5 | 259 | 0.0 | 0.0 | 0.00 | 0.00 | 0.00 | 83 | 1013.3 |
| 20260508072928 | 5 | 259 | 0.0 | 0.0 | 0.00 | 0.00 | 0.00 | 83 | 1013.1 |
| 20260508072424 | 6 | 258 | 0.0 | 0.0 | 0.00 | 0.00 | 0.00 | 83 | 1013.3 |
| 20260508071922 | 6 | 250 | 0.0 | 0.0 | 0.00 | 0.00 | 0.00 | 82 | 1013.3 |
| 20260508071420 | 6 | 261 | 0.0 | 0.0 | 0.00 | 0.00 | 0.00 | 82 | 1013.3 |
| 20260508070917 | 6 | 262 | 0.0 | 0.0 | 0.00 | 0.00 | 0.00 | 81 | 1013.3 |
| 20260508070415 | 6 | 261 | 0.0 | 0.0 | 0.00 | 0.00 | 0.00 | 80 | 1013.4 |
| 20260508065913 | 6 | 261 | 0.0 | 0.0 | 0.00 | 0.00 | 0.00 | 80 | 1013.3 |
| 20260508065410 | 6 | 260 | 0.0 | 0.0 | 0.00 | 0.00 | 0.00 | 80 | 1013.3 |
| 20260508064909 | 6 | 264 | 0.0 | 0.0 | 0.00 | 0.00 | 0.00 | 80 | 1013.6 |
| 20260508064405 | 6 | 264 | 0.0 | 0.0 | 0.00 | 0.00 | 0.00 | 80 | 1013.6 |
| 20260508063903 | 6 | 264 | 0.0 | 0.0 | 0.00 | 0.00 | 0.00 | 80 | 1013.4 |
| 20260508063401 | 6 | 261 | 0.0 | 0.0 | 0.00 | 0.00 | 0.00 | 79 | 1013.4 |
| 20260508062858 | 6 | 262 | 0.0 | 0.0 | 0.00 | 0.00 | 0.00 | 79 | 1013.5 |
| 20260508062355 | 6 | 262 | 0.0 | 0.0 | 0.00 | 0.00 | 0.00 | 78 | 1013.2 |
| 20260508061852 | 6 | 262 | 0.0 | 0.0 | 0.00 | 0.00 | 0.00 | 78 | 1013.4 |
| 20260508061349 | 7 | 262 | 0.0 | 0.0 | 0.00 | 0.00 | 0.00 | 78 | 1013.5 |
| 20260508060846 | 7 | 263 | 0.0 | 0.0 | 0.00 | 0.00 | 0.00 | 77 | 1013.5 |
| 20260508060344 | 7 | 261 | 0.0 | 0.0 | 0.00 | 0.00 | 0.00 | 77 | 1013.3 |
| 20260508055838 | 7 | 266 | 0.0 | 0.0 | 0.00 | 0.00 | 0.00 | 77 | 1013.5 |
| 20260508055336 | 7 | 281 | 0.0 | 0.0 | 0.00 | 0.00 | 0.00 | 77 | 1013.5 |
| 20260508054832 | 6 | 267 | 0.0 | 0.0 | 0.00 | 0.00 | 0.00 | 77 | 1013.5 |
| 20260508054330 | 6 | 259 | 0.0 | 0.0 | 0.00 | 0.00 | 0.00 | 77 | 1013.5 |
| 20260508053827 | 6 | 261 | 0.0 | 0.0 | 0.00 | 0.00 | 0.00 | 77 | 1013.3 |
| 20260508053324 | 6 | 261 | 0.0 | 0.0 | 0.00 | 0.00 | 0.00 | 76 | 1013.6 |
| 20260508052822 | 6 | 261 | 0.0 | 0.0 | 0.00 | 0.00 | 0.00 | 76 | 1013.5 |
| 20260508052319 | 6 | 263 | 0.0 | 0.0 | 0.00 | 0.00 | 0.00 | 76 | 1013.6 |
| 20260508051815 | 6 | 263 | 0.0 | 0.0 | 0.00 | 0.00 | 0.00 | 76 | 1013.5 |
| 20260508051310 | 6 | 263 | 0.0 | 0.0 | 0.00 | 0.00 | 0.00 | 76 | 1013.5 |
| 20260508050807 | 6 | 263 | 0.0 | 0.0 | 0.00 | 0.00 | 0.00 | 75 | 1013.6 |
| 20260508050304 | 6 | 264 | 0.0 | 0.0 | 0.00 | 0.00 | 0.00 | 75 | 1013.6 |
| 20260508045800 | 6 | 264 | 0.0 | 0.0 | 0.00 | 0.00 | 0.00 | 74 | 1013.4 |
| 20260508045258 | 6 | 262 | 0.0 | 0.0 | 0.00 | 0.00 | 0.00 | 74 | 1013.5 |
| 20260508044755 | 6 | 258 | 0.0 | 0.0 | 0.00 | 0.00 | 0.00 | 73 | 1013.4 |
| 20260508044251 | 6 | 266 | 0.0 | 0.0 | 0.00 | 0.00 | 0.00 | 72 | 1013.4 |
| 20260508043747 | 6 | 265 | 0.0 | 0.0 | 0.00 | 0.00 | 0.00 | 73 | 1013.5 |
| 20260508043245 | 7 | 265 | 0.0 | 0.0 | 0.00 | 0.00 | 0.00 | 72 | 1013.3 |
| 20260508042741 | 7 | 261 | 0.0 | 0.0 | 0.00 | 0.00 | 0.00 | 70 | 1013.4 |
| 20260508042239 | 7 | 262 | 0.0 | 0.0 | 0.00 | 0.00 | 0.00 | 69 | 1013.4 |
| 20260508041736 | 7 | 280 | 0.0 | 0.0 | 0.00 | 0.00 | 0.00 | 68 | 1013.3 |
| 20260508041232 | 7 | 260 | 0.0 | 0.0 | 0.00 | 0.00 | 0.00 | 66 | 1013.4 |
| 20260508040729 | 8 | 266 | 0.0 | 0.0 | 0.00 | 0.00 | 0.00 | 64 | 1013.6 |
| 20260508040226 | 8 | 266 | 0.0 | 0.0 | 0.00 | 0.00 | 0.00 | 64 | 1013.5 |
| 20260508035723 | 8 | 266 | 0.0 | 0.0 | 0.00 | 0.00 | 0.00 | 62 | 1013.6 |
| 20260508035221 | 9 | 266 | 0.0 | 0.0 | 0.00 | 0.00 | 0.00 | 62 | 1013.2 |
| 20260508034717 | 9 | 266 | 0.0 | 0.0 | 0.00 | 0.00 | 0.00 | 61 | 1013.6 |
| 20260508034215 | 9 | 267 | 0.0 | 0.0 | 0.00 | 0.00 | 0.00 | 60 | 1013.6 |
| 20260508033711 | 9 | 265 | 0.0 | 0.0 | 0.00 | 0.00 | 0.00 | 64 | 1013.5 |
| 20260508033210 | 9 | 278 | 0.0 | 0.0 | 0.00 | 0.00 | 0.00 | 65 | 1013.4 |
| 20260508032707 | 9 | 262 | 0.0 | 0.0 | 0.00 | 0.00 | 0.00 | 64 | 1013.5 |